Weather in Bolshaya Glushitsa

Russia / Samara Oblast     52°23′33″N   50°28′18″E
temp.,
°C
wind,
m/s
gust,
m/s
humid.,
%
clouds,
%
prec.,
mm/h
press.,
hPa
HPBL,
m
28 february, sun
sun2801:00−10n71095100 1.8 1000225
04:00−11nnw61094100 2.1 1001399
07:00−15nw6119396 0.1 1003390
10:00−17nw6119398 0.1 1006349
13:00−14nw6992100 0.1 1007397
16:00−14nw6993100 0.1 1009429
19:00−16nw5994100 0.0 1012238
22:00−17nw479698 0.1 1014167
1 march, mon
mon101:00−16nw4895100 0.1 1015235
04:00−16nw479697 0.2 1017170
07:00−19nnw369690 0.1 1019136
10:00−19nnw479549 0.1 1021217
13:00−16nw359220 0.0 1022263
16:00−15wnw369449 0.0 1022306
19:00−19w339860 0.0 102323
22:00−19wsw339930 0.0 102325
2 march, tue
tue201:00−19sw4410033 0.0 102275
04:00−17sw599963 0.0 1019171
07:00−14sw61296100 0.0 1016274
10:00−10sw81494100 0.3 1013483
13:00−5sw91495100 0.6 1010684
16:00−2sw91496100 1.9 1007723
19:00−1wsw81495100 1.5 1005651
22:000wsw61098100 1.9 1004432
3 march, wed
wed301:000w3697100 0.4 1003308
04:00−5wnw349496 0.4 100464
07:00−7wnw2395100 0.0 100431
10:00−6nw3696100 0.0 1005152
13:00−4nw479497 0.0 1005271
16:00−4nw489385 0.1 1006393
19:00−3nw489396 0.1 1007408
22:00−9nw459265 0.1 101074
4 march, thu
thu401:00−11nw449216 0.0 101060
04:00−12wnw34958 0.0 101163
07:00−13wsw34960 0.0 101251
10:00−10wsw59943 0.0 1012247
13:00−7sw712900 0.0 1011375
16:00−4sw9149250 0.0 1009739
19:00−2sw101691100 0.1 1006976
22:00−1wsw101788100 0.3 10051078